Regional Weather Roundup
Issued by NWS

Home | Current Version | Previous Version | Text Only | Print | Product List | Glossary On
Versions: 1 2 3 4 5 6 7 8 9 10 11 12 13 14 15 16 17 18 19 20 21 22 23 24 25 26 27 28 29 30 31 32 33 34 35 36 37 38 39 40 41 42 43 44 45 46 47 48 49 50
000
ASUS43 KMPX 241701
RWRMN
WEATHER ROUNDUP FOR MINNESOTA
NATIONAL WEATHER SERVICE TWIN CITIES/CHANHASSEN MN
1100 AM CST FRI FEB 24 2017


NOTE: "FAIR" INDICATES FEW OR NO CLOUDS BELOW 12,000 FEET WITH NO
SIGNIFICANT WEATHER AND/OR OBSTRUCTIONS TO VISIBILITY. N/A MEANS
CURRENT SKY AND/OR WEATHER CONDITIONS ARE NOT AVAILABLE.

MNZ060>063-068>070-241800-
   Twin Cities Metro

CITY           SKY/WX    TMP DP  RH WIND       PRES   REMARKS
TWIN CITIES    CLOUDY    26  16  65 N16       29.86S WCI  14
ST PAUL        CLOUDY    26  18  71 N17G24    29.87S HAZE    WCI  13
CRYSTAL        CLOUDY    26  14  60 N14       29.86F WCI  14
BLAINE         CLOUDY    27  18  69 N17G23    29.87S WCI  14
LAKEVILLE      LGT SNOW  23  19  86 N15       29.83S WCI  10
EDEN PRAIRIE   CLOUDY    27  16  63 N9        29.85S WCI  18
SOUTH ST PAUL  CLOUDY    27  19  72 N14       29.85R WCI  15
LAKE ELMO      LGT SNOW  28  23  80 N10       29.85R WCI  19
$$
MNZ001>005-007-008-013>017-022>024-027-028-241800-
   Northwest Minnesota

CITY           SKY/WX    TMP DP  RH WIND       PRES   REMARKS
BEMIDJI        CLOUDY    14   6  69 NW13      30.03S WCI   0
HALLOCK        SUNNY     18   9  68 N14       30.15S WCI   4
ROSEAU         SUNNY     12   5  73 NW9       30.11S WCI   0
WARROAD        SUNNY     14   3  62 NW8       30.09F WCI   3
THIEF RVR FALL SUNNY     18   7  62 N16       30.11S WCI   3
CROOKSTON      SUNNY     19  10  68 N13       30.14S WCI   7
FOSSTON        SUNNY     19   9  63 NW13      30.06F WCI   7
DETROIT LAKES  CLOUDY    21  12  68 N10G18    30.03F WCI  10
MOORHEAD       CLOUDY    21  12  68 N22       30.10F WCI   5
PARK RAPIDS    CLOUDY    16   3  56 N14       30.00S WCI   2
MAHNOMEN       FAIR      19   8  61 N18       30.06S WCI   3
$$
MNZ006-009>011-018-025>026-241800-
   North Central Minnesota

CITY           SKY/WX    TMP DP  RH WIND       PRES   REMARKS
BAUDETTE       SUNNY     13   2  61 N9        30.06F WCI   1
FLAG ISLAND    SUNNY     12   3  67 NW8       30.08F WCI   1
INTL FALLS     SUNNY     14   1  56 NE10      30.03F WCI   1
WASKISH        MOSUNNY   18   5  57 N12G18    30.05S WCI   5
BIG FORK       CLOUDY    18   3  53 N10G17    30.00S WCI   6
LONGVILLE      CLOUDY    16   7  67 N5        30.00S WCI   9
GRAND RAPIDS   CLOUDY    17   5  59 N14       30.00R WCI   3
CRANE LAKE     SUNNY     12   3  67 N8        30.02F WCI   1
ORR            MOSUNNY   16   0  48 CALM      29.96F
COOK           MOSUNNY   14   3  62 N5        29.98S WCI   6
WALKER         FAIR      15   4  62 N10G17    30.01S WCI   2
$$
MNZ012-019>021-037-241800-
   Northeast Minnesota

CITY           SKY/WX    TMP DP  RH WIND       PRES   REMARKS
DULUTH         CLOUDY    17  10  74 N10       29.91S WCI   5
ELY            CLOUDY    12   1  62 N5        29.95S WCI   4
HIBBING        MOSUNNY   14   5  67 N9        29.96R WCI   2
EVELETH        PTSUNNY   17   2  52 N7        29.96R WCI   7
DULUTH HARBOR  CLOUDY    23  16  74 NE16G23   29.97F WCI  10
TWO HARBORS    PTSUNNY   21  10  63 NE6       29.93S WCI  14
SILVER BAY     CLOUDY    18   7  62 NE6       29.93S WCI   9
GRAND MARAIS     N/A     18   2  49 VRB6      29.98F WCI  10
G MARAIS ARPRT CLOUDY    10  -4  52 N13       29.87F WCI  -5
$$
MNZ029>031-032-039>041-046>048-054>057-064-241800-
   West Central Minnesota

CITY           SKY/WX    TMP DP  RH WIND       PRES   REMARKS
FERGUS FALLS   CLOUDY    21   9  58 N15G23    30.08F WCI   8
WHEATON        MOSUNNY   23  12  63 N21G29    30.07S WCI   8
MORRIS         CLOUDY    25  10  54 N24G31    30.00S WCI   9
ALEXANDRIA     CLOUDY    21   9  59 N15       29.97F WCI   8
ELBOW LAKE     FAIR      21  10  62 N16G23    30.02S WCI   7
WADENA         MOSUNNY   18   9  68 N16G22    29.99F WCI   3
GLENWOOD       CLOUDY    21   9  58 N15G25    29.96S WCI   8
APPLETON       CLOUDY    25  10  54 N20       30.00S WCI  11
BENSON         CLOUDY    27   7  43 NE20G28   29.99S WCI  13
ORTONVILLE       N/A     23  12  63 N25       30.02S WCI   7
MADISON        CLOUDY    27  12  54 N22G32    30.01S WCI  12
WILLMAR        FAIR      25  14  63 N22G28    29.95S WCI  10
$$
MNZ033>034-036-042>043-049>051-058-059-241800-
   Central Minnesota

CITY           SKY/WX    TMP DP  RH WIND       PRES   REMARKS
ST CLOUD       CLOUDY    22   9  57 N20G28    29.91F WCI   7
SAUK CENTRE    FAIR      20   8  62 N16G23    29.96S WCI   5
PAYNESVILLE    MOSUNNY   22  10  59 N16G24    29.93F WCI   8
AITKIN         CLOUDY    19   9  63 N15G23    29.95S WCI   5
PINE RIVER     CLOUDY    18   7  62 N15       30.02S WCI   3
BRAINERD       CLOUDY    18   7  62 N15       29.97S WCI   4
STAPLES        CLOUDY    18   9  68 N14G21    29.98F WCI   4
LONG PRAIRIE   FAIR      19   9  63 NW15G21   29.97S WCI   5
LITTLE FALLS   CLOUDY    19   9  63 N10G21    29.96F WCI   8
LITCHFIELD     CLOUDY    25  10  54 N16G24    29.91S WCI  12
BUFFALO        CLOUDY    24  13  64 N12G20    29.91R WCI  13
MAPLE LAKE     CLOUDY    25  14  62 N15G28    29.90F WCI  13
HUTCHINSON     MOSUNNY   25  14  61 N18G29    29.90R WCI  12
$$
MNZ037-044-045-052-053-241800-
   East Central Minnesota

CITY           SKY/WX    TMP DP  RH WIND       PRES   REMARKS
PRINCETON      CLOUDY    23  12  63 NW15      29.90F WCI  10
MORA           CLOUDY    21  12  68 N8        29.93F WCI  12
CAMBRIDGE      CLOUDY    25  14  63 N10G20    29.87F WCI  15
RUSH CITY      CLOUDY    23  16  74 VRB17G24  29.89F WCI   9
MOOSE LAKE     CLOUDY    19  12  73 N7        29.93R WCI  10
HINCKLEY       CLOUDY    23  16  74 N14       29.92S WCI  11
CLOQUET        CLOUDY    18  10  73 N10G16    29.92S WCI   6
MCGREGOR       CLOUDY    19  12  73 N15G22    29.96S WCI   5
$$
MNZ071>073-080-081-089-090-097-098-241800-
   Southwest Minnesota

CITY           SKY/WX    TMP DP  RH WIND       PRES   REMARKS
MONTEVIDEO     CLOUDY    23  12  63 NE21G28   29.99S WCI   8
GRANITE FALLS  CLOUDY    26  14  62 N18       29.98R WCI  12
CANBY          CLOUDY    25  12  59 N21G26    30.00S WCI  10
MARSHALL       CLOUDY    23  13  65 N23G30    29.94F WCI   7
REDWOOD FALLS  CLOUDY    25  10  53 N16G24    29.93R WCI  12
OLIVIA         CLOUDY    28  14  54 N16G25    29.92S WCI  17
PIPESTONE      CLOUDY    21   9  58 NE18G30   29.90S WCI   6
WINDOM         CLOUDY    23  16  74 N28G33    29.85F WCI   6
WORTHINGTON    LGT SNOW  22  16  78 N31       29.85F WCI   4
JACKSON        LGT SNOW  21  18  86 VRB20G31    N/A  VSB 1   WCI   6
TRACY          CLOUDY    24  15  69 N23       29.91F WCI   9
SLAYTON        CLOUDY    20  14  76 N21G33    29.89S WCI   5
$$
MNZ065>067-074>077-082>085-091>093-241800-
   South Central Minnesota

CITY           SKY/WX    TMP DP  RH WIND       PRES   REMARKS
MANKATO        LGT SNOW  24  19  81 N22       29.84F VSB 3/4 WCI   9
NEW ULM        CLOUDY    25  12  58 N14G26    29.87S WCI  13
ST JAMES       LGT SNOW  23  18  80 N21       29.87F WCI   8
FAIRMONT       SNOW      23  20  88 N24       29.81F VSB 1/2 WCI   7
GLENCOE        CLOUDY    26  18  71 N17G26    29.87F WCI  13
FARIBAULT      SNOW      25  21  86 N14G24    29.81F VSB 1/2 WCI  13
OWATONNA         N/A     25  19  80 N21       29.77F WCI  10
WASECA         LGT SNOW  23  21  93 N21       29.80F WCI   8
ALBERT LEA     CLOUDY    25  21  86 N20G25    29.74R FOG     WCI  11
$$
MNZ078>079-086>088-094>096-241800-
   Southeast Minnesota

CITY           SKY/WX    TMP DP  RH WIND       PRES   REMARKS
ROCHESTER      CLOUDY    27  25  92 N23G31    29.70F FOG     WCI  12
RED WING       LGT SNOW  28  19  69 N12G17    29.80S WCI  18
STANTON        LGT SNOW  27  22  82 N16       29.80R VSB 1   WCI  14
WINONA         CLOUDY    32  28  86 N6        29.74S WCI  26
AUSTIN           N/A     27  23  86 N15G23    29.70F WCI  15
PRESTON        CLOUDY    28  25  89 N18G25    29.66F WCI  15
$$
ABBREVIATIONS USED IN REMARKS
   TC - TEMPERATURES IN CELSIUS
  WCI - WIND CHILL INDEX
   HX - HEAT INDEX
  VSB - VISIBILITY
$$




USA.gov is the U.S. government's official web portal to all federal, state and local government web resources and services.